McCutcheon Field, NC

1:02 PM EST on February 23, 2017 (GMT -0500)
New River Marine Corps Air Station

Weather History for KNCA - September, 2012

Change the Weather History Date:

Saturday, September 22, 2012

  Actual Average Record
Temperature  
Mean Temperature 70 °F -  
Max Temperature 82 °F 79 °F 90 °F (1998)
Min Temperature 60 °F 61 °F 52 °F (1999)
Cooling Degree Days 6    
Growing Degree Days 20 (Base 50)    
Moisture  
Dew Point 63 °F    
Average Humidity 79    
Maximum Humidity 97    
Minimum Humidity 56    
Precipitation  
Precipitation 0.00 in - - ()
Sea Level Pressure  
Sea Level Pressure 30.02 in    
Wind  
Wind Speed 2 mph (SSW)    
Max Wind Speed 13 mph    
Max Gust Speed 17 mph    
Visibility 10 miles    
Events      
Averages and records for this station are not official NWS values.
T = Trace of Precipitation, MM = Missing Value Source: NWS Daily Summary

Daily Weather History Graph

Daily Weather History Graph

Search for Another Location

Airport or City:

Trip Planner

Search our weather history database for the weather conditions in past years. The results will help you decide how hot, cold, wet, or windy it might be!

Date:

Astronomy

Sep. 22, 2012 Rise Set
Actual Time 6:58 AM EDT 7:05 PM EDT
Civil Twilight 6:32 AM EDT 7:31 PM EDT
Nautical Twilight 6:03 AM EDT 8:00 PM EDT
Astronomical Twilight 5:33 AM EDT 8:30 PM EDT
Moon 1:59 PM EDT (9/22) No Moon Set
Length of Visible Light 12h 58m
Length of Day
12h 07m
Waxing Crescent, 48% of the Moon is Illuminated
Sep 22
Waxing Crescent
Sep 22
First Quarter
Sep 29
Full
Oct 8
Last Quarter
Oct 15
New

Hourly Weather History & Observations

Time (EDT) Temp. Heat Index Dew Point Humidity Pressure Visibility Wind Dir Wind Speed Gust Speed Precip Events Conditions
12:56 AM 62.1 °F - 60.1 °F 93% 30.05 in 9.0 mi Calm Calm - N/A   Clear
1:56 AM 62.1 °F - 60.1 °F 93% 30.05 in 10.0 mi Calm Calm - N/A   Clear
2:56 AM 61.0 °F - 60.1 °F 97% 30.04 in 9.0 mi Calm Calm - N/A   Clear
4:56 AM 60.1 °F - 59.0 °F 96% 30.04 in 10.0 mi Calm Calm - N/A   Clear
5:56 AM 61.0 °F - 57.9 °F 90% 30.05 in 10.0 mi Calm Calm - N/A   Clear
6:56 AM 60.1 °F - 57.9 °F 93% 30.06 in 10.0 mi Calm Calm - N/A   Clear
7:56 AM 63.0 °F - 61.0 °F 93% 30.06 in 10.0 mi Calm Calm - N/A   Clear
8:56 AM 68.0 °F - 63.0 °F 84% 30.06 in 10.0 mi Calm Calm - N/A   Clear
9:56 AM 72.0 °F - 64.0 °F 76% 30.06 in 10.0 mi Calm Calm - N/A   Clear
10:56 AM 73.9 °F - 64.9 °F 73% 30.06 in 10.0 mi WSW 5.8 mph - N/A   Clear
11:56 AM 75.9 °F - 66.0 °F 71% 30.05 in 10.0 mi SW 6.9 mph - N/A   Clear
12:56 PM 78.1 °F - 64.9 °F 64% 30.03 in 10.0 mi WSW 4.6 mph - N/A   Clear
1:56 PM 80.1 °F 81.7 °F 64.0 °F 58% 30.00 in 10.0 mi SSW 4.6 mph - N/A   Clear
2:56 PM 81.0 °F 82.5 °F 64.0 °F 56% 29.98 in 10.0 mi SW 8.1 mph - N/A   Clear
3:56 PM 80.1 °F 81.9 °F 64.9 °F 60% 29.97 in 10.0 mi South 12.7 mph - N/A   Clear
4:56 PM 80.1 °F 81.7 °F 64.0 °F 58% 29.98 in 10.0 mi South 11.5 mph - N/A   Clear
5:56 PM 78.1 °F - 64.9 °F 64% 29.97 in 10.0 mi South 6.9 mph 17.3 mph N/A   Clear
6:56 PM 73.9 °F - 66.0 °F 76% 29.98 in 10.0 mi South 5.8 mph - N/A   Clear
7:56 PM 73.0 °F - 64.9 °F 76% 29.99 in 10.0 mi South 6.9 mph - N/A   Clear
8:56 PM 71.1 °F - 66.0 °F 84% 29.99 in 10.0 mi South 4.6 mph - N/A   Clear
9:56 PM 71.1 °F - 66.0 °F 84% 29.99 in 10.0 mi South 3.5 mph - N/A   Clear
10:56 PM 69.1 °F - 66.0 °F 90% 30.00 in 10.0 mi Calm Calm - N/A   Clear
11:56 PM 71.1 °F - 66.0 °F 84% 30.01 in 10.0 mi SW 4.6 mph - N/A   Clear